| time (UTC) | temp F | wind direction | speed knots | gust knots | rain 1hr in | rain 24hr in | rain mn in | humidity % | barometer mb |
| 20260506223737 | 69 | 120 | 0.0 | 0.0 | 0.00 | 0.00 | 0.00 | 48 | 1009.7 |
| 20260506222237 | 69 | 120 | 0.0 | 0.0 | 0.00 | 0.00 | 0.00 | 48 | 1009.6 |
| 20260506220736 | 69 | 120 | 0.0 | 0.0 | 0.00 | 0.00 | 0.00 | 48 | 1009.7 |
| 20260506215234 | 69 | 120 | 0.0 | 0.0 | 0.00 | 0.00 | 0.00 | 48 | 1009.7 |
| 20260506213733 | 69 | 120 | 0.0 | 0.0 | 0.00 | 0.00 | 0.00 | 48 | 1009.8 |
| 20260506212232 | 69 | 120 | 0.0 | 0.0 | 0.00 | 0.00 | 0.00 | 48 | 1009.7 |
| 20260506210731 | 69 | 120 | 0.0 | 0.0 | 0.00 | 0.00 | 0.00 | 48 | 1009.7 |
| 20260506205230 | 69 | 120 | 0.0 | 0.0 | 0.00 | 0.00 | 0.00 | 48 | 1009.6 |
| 20260506203729 | 69 | 120 | 0.0 | 0.0 | 0.00 | 0.00 | 0.00 | 48 | 1009.6 |
| 20260506202227 | 69 | 120 | 0.0 | 0.0 | 0.00 | 0.00 | 0.00 | 48 | 1009.5 |
| 20260506200726 | 69 | 120 | 0.0 | 0.0 | 0.00 | 0.00 | 0.00 | 48 | 1009.5 |
| 20260506195224 | 69 | 120 | 0.0 | 0.0 | 0.00 | 0.00 | 0.00 | 48 | 1009.5 |
| 20260506193724 | 69 | 120 | 0.0 | 0.0 | 0.00 | 0.00 | 0.00 | 48 | 1009.5 |
| 20260506192223 | 69 | 120 | 0.0 | 0.0 | 0.00 | 0.00 | 0.00 | 48 | 1009.4 |
| 20260506190722 | 69 | 120 | 0.0 | 0.0 | 0.00 | 0.00 | 0.00 | 48 | 1009.3 |
| 20260506185221 | 69 | 120 | 0.0 | 0.0 | 0.00 | 0.00 | 0.00 | 48 | 1009.1 |
| 20260506183721 | 75 | 127 | 0.0 | 0.0 | 0.00 | 0.00 | 0.00 | 45 | 1008.8 |
| 20260506180714 | 75 | 127 | 0.0 | 0.0 | 0.00 | 0.00 | 0.00 | 45 | 1008.6 |
| 20260506175212 | 75 | 127 | 0.0 | 0.0 | 0.00 | 0.00 | 0.00 | 45 | 1008.5 |
| 20260506173711 | 75 | 127 | 0.0 | 0.0 | 0.00 | 0.00 | 0.00 | 45 | 1008.5 |
| 20260506172210 | 75 | 127 | 0.0 | 0.0 | 0.00 | 0.00 | 0.00 | 45 | 1008.4 |
| 20260506170709 | 75 | 127 | 0.0 | 0.0 | 0.00 | 0.00 | 0.00 | 45 | 1008.4 |
| 20260506163702 | 75 | 127 | 0.0 | 0.0 | 0.00 | 0.00 | 0.00 | 45 | 1008.5 |
| 20260506162201 | 75 | 127 | 0.0 | 0.0 | 0.00 | 0.00 | 0.00 | 45 | 1008.4 |
| 20260506160700 | 75 | 150 | 0.0 | 0.0 | 0.01 | 0.00 | 0.00 | 43 | 1008.4 |
| 20260506155159 | 82 | 12 | 0.0 | 0.0 | 0.01 | 0.00 | 0.00 | 42 | 1008.7 |
| 20260506153658 | 82 | 12 | 0.0 | 0.0 | 0.01 | 0.00 | 0.00 | 42 | 1008.9 |
| 20260506152157 | 79 | 76 | 0.0 | 0.0 | 0.00 | 0.00 | 0.00 | 31 | 1008.8 |
| 20260506150656 | 79 | 76 | 0.0 | 0.0 | 0.00 | 0.00 | 0.00 | 31 | 1008.9 |
| 20260506145155 | 79 | 76 | 0.0 | 0.0 | 0.00 | 0.00 | 0.00 | 31 | 1009.0 |
| 20260506143654 | 79 | 76 | 0.0 | 0.0 | 0.00 | 0.00 | 0.00 | 31 | 1009.2 |
| 20260506142153 | 79 | 76 | 0.0 | 0.0 | 0.00 | 0.00 | 0.00 | 31 | 1009.1 |
| 20260506140652 | 79 | 76 | 0.0 | 0.0 | 0.00 | 0.00 | 0.00 | 31 | 1008.8 |
| 20260506135151 | 79 | 76 | 0.0 | 0.0 | 0.00 | 0.00 | 0.00 | 31 | 1008.8 |
| 20260506133649 | 79 | 76 | 0.0 | 0.0 | 0.00 | 0.00 | 0.00 | 31 | 1008.8 |
| 20260506130648 | 79 | 76 | 0.0 | 0.0 | 0.00 | 0.00 | 0.00 | 31 | 1008.6 |
| 20260506125146 | 79 | 76 | 0.0 | 0.0 | 0.00 | 0.00 | 0.00 | 31 | 1008.8 |
| 20260506123645 | 79 | 76 | 0.0 | 0.0 | 0.00 | 0.00 | 0.00 | 31 | 1008.8 |
| 20260506122144 | 79 | 76 | 0.0 | 0.0 | 0.00 | 0.00 | 0.00 | 31 | 1008.9 |
| 20260506120643 | 79 | 76 | 0.0 | 0.0 | 0.00 | 0.00 | 0.00 | 31 | 1008.9 |
| 20260506115142 | 79 | 76 | 0.0 | 0.0 | 0.00 | 0.00 | 0.00 | 31 | 1008.7 |
| 20260506113641 | 79 | 76 | 0.0 | 0.0 | 0.00 | 0.00 | 0.00 | 31 | 1008.9 |
| 20260506112140 | 79 | 76 | 0.0 | 0.0 | 0.00 | 0.00 | 0.00 | 31 | 1008.7 |
| 20260506110639 | 79 | 192 | 0.0 | 0.9 | 0.00 | 0.00 | 0.00 | 30 | 1008.8 |
| 20260506105137 | 82 | 132 | 0.9 | 0.9 | 0.00 | 0.00 | 0.00 | 26 | 1008.7 |
| 20260506103636 | 82 | 222 | 0.0 | 0.0 | 0.00 | 0.00 | 0.00 | 27 | 1008.8 |
| 20260506102135 | 82 | 222 | 1.7 | 2.6 | 0.00 | 0.00 | 0.00 | 27 | 1008.7 |
| 20260506100634 | 83 | 192 | 2.6 | 2.6 | 0.00 | 0.00 | 0.00 | 27 | 1008.6 |
| 20260506095132 | 78 | 82 | 0.9 | 0.9 | 0.00 | 0.00 | 0.00 | 31 | 1008.7 |
| 20260506093632 | 74 | 104 | 0.0 | 0.0 | 0.00 | 0.00 | 0.00 | 36 | 1008.8 |
| 20260506092130 | 74 | 104 | 0.0 | 0.0 | 0.00 | 0.00 | 0.00 | 36 | 1009.0 |
| 20260506090629 | 74 | 104 | 1.7 | 1.7 | 0.00 | 0.00 | 0.00 | 36 | 1009.1 |
| 20260506085129 | 73 | 216 | 1.7 | 1.7 | 0.00 | 0.00 | 0.00 | 36 | 1009.0 |
| 20260506083628 | 72 | 131 | 1.7 | 1.7 | 0.00 | 0.00 | 0.00 | 38 | 1008.9 |
| 20260506082127 | 72 | 342 | 1.7 | 1.7 | 0.00 | 0.00 | 0.00 | 38 | 1008.8 |
| 20260506080626 | 71 | 198 | 1.7 | 1.7 | 0.00 | 0.00 | 0.00 | 38 | 1008.8 |
| 20260506072123 | 69 | 76 | 0.9 | 1.7 | 0.00 | 0.00 | 0.00 | 39 | 1008.7 |
| 20260506070622 | 69 | 175 | 0.0 | 0.0 | 0.00 | 0.00 | 0.00 | 40 | 1008.9 |
| 20260506062118 | 66 | 53 | 0.0 | 0.0 | 0.00 | 0.00 | 0.00 | 45 | 1008.5 |
| 20260506060617 | 66 | 53 | 0.0 | 0.0 | 0.00 | 0.00 | 0.00 | 45 | 1008.5 |
| 20260506050612 | 63 | 102 | 0.0 | 0.0 | 0.00 | 0.00 | 0.00 | 48 | 1008.5 |
| 20260506045111 | 63 | 102 | 0.0 | 0.0 | 0.00 | 0.00 | 0.00 | 48 | 1008.7 |
| 20260506043609 | 62 | 126 | 0.0 | 0.0 | 0.00 | 0.00 | 0.00 | 47 | 1008.8 |
| 20260506042108 | 61 | 246 | 0.9 | 0.9 | 0.00 | 0.00 | 0.00 | 44 | 1008.8 |
| 20260506040608 | 61 | 156 | 0.0 | 0.0 | 0.00 | 0.00 | 0.00 | 45 | 1008.8 |
| 20260506035107 | 60 | 117 | 0.0 | 0.0 | 0.00 | 0.00 | 0.00 | 45 | 1008.7 |
| 20260506033605 | 60 | 117 | 0.0 | 0.0 | 0.00 | 0.00 | 0.00 | 45 | 1008.7 |
| 20260506032104 | 60 | 354 | 0.0 | 0.0 | 0.00 | 0.00 | 0.00 | 44 | 1008.7 |
| 20260506030603 | 60 | 119 | 0.0 | 0.0 | 0.00 | 0.00 | 0.00 | 43 | 1008.8 |
| 20260506025101 | 60 | 119 | 0.0 | 0.0 | 0.00 | 0.00 | 0.00 | 43 | 1008.7 |
| 20260506023601 | 60 | 119 | 0.0 | 0.0 | 0.00 | 0.00 | 0.00 | 43 | 1008.9 |
| 20260506022059 | 60 | 119 | 0.0 | 0.0 | 0.00 | 0.00 | 0.00 | 43 | 1008.9 |
| 20260506020558 | 60 | 119 | 0.0 | 0.0 | 0.00 | 0.00 | 0.00 | 43 | 1009.0 |
| 20260506015057 | 60 | 119 | 0.0 | 0.0 | 0.00 | 0.00 | 0.00 | 43 | 1009.0 |
| 20260506013556 | 60 | 119 | 0.0 | 0.0 | 0.00 | 0.00 | 0.00 | 43 | 1009.1 |
| 20260506012055 | 62 | 129 | 0.0 | 0.0 | 0.00 | 0.00 | 0.00 | 41 | 1009.1 |
| 20260506010553 | 62 | 129 | 0.0 | 0.0 | 0.00 | 0.00 | 0.00 | 41 | 1009.1 |
| 20260506005053 | 62 | 129 | 0.0 | 0.0 | 0.00 | 0.00 | 0.00 | 41 | 1009.1 |
| 20260506003552 | 62 | 129 | 0.0 | 0.0 | 0.00 | 0.00 | 0.00 | 41 | 1009.1 |
| 20260506002050 | 62 | 129 | 0.0 | 0.0 | 0.00 | 0.00 | 0.00 | 41 | 1009.1 |
| 20260506000549 | 62 | 129 | 0.0 | 0.0 | 0.00 | 0.00 | 0.00 | 41 | 1009.2 |
| 20260505235048 | 62 | 129 | 0.0 | 0.0 | 0.00 | 0.00 | 0.00 | 41 | 1009.2 |
| 20260505233547 | 62 | 129 | 0.0 | 0.0 | 0.00 | 0.00 | 0.00 | 41 | 1009.2 |
| 20260505232046 | 62 | 129 | 0.0 | 0.0 | 0.00 | 0.00 | 0.00 | 41 | 1009.3 |
| 20260505230545 | 62 | 129 | 0.0 | 0.0 | 0.00 | 0.00 | 0.00 | 41 | 1009.4 |
| 20260505225044 | 64 | 144 | 0.0 | 0.0 | 0.00 | 0.00 | 0.00 | 40 | 1009.5 |